Kezdőlap
METAR-TAF:

METAR-TAF

Repülőterek :

Kuvaitváros, Kuvait

földrajzi szélesség: 29-13N, földrajzi hosszúság: 047-59E, magasság: 55 m

Jelenlegi meteorológiai megfigyelések

A jelentés 5 perccel ezelõtt készült, 01:00 UTC
Északi szél 5 kt
Hőmérséklet 22°C
Páratartalom 46%
Légköri nyomás 1013 hPa
Látótávolság: 7000 m
Derült ég

METAR: OKBK 240100Z 35005KT 7000 SKC 22/10 Q1013 NOSIG

Idő: 04:05 (01:05 UTC)

Előrejelzés

A jelentés 8 órával és 20 perccel ezelõtt készült, 16:45 UTC
Az előrejelzés 23-én 18 óra UTC és 24-én 24 óra UTC között érvényes
Északi szél 8 kt széllökések: 18 kt
Látótávolság: 6000 m
23-én 18 óra UTC és 23-én 21 óra UTC között ideiglenes
Látótávolság: 3000 m
Száraz légköri homály

TAF: OKBK 231645Z 2318/2424 36008G18KT 6000 NSC TEMPO 2318/2321 3000 HZ

Meteorológiai megfigyelések és előrejelzések több, mint 4000 repülőtéren (METAR és TAF jelentéseket).

A térképen piros és sárga pontok jelzik az elérhető meteorológiai állomásokat.

Mozgassa az egeret a pont fölött, hogy megjelenjen az állomás neve.

Azután kattintson az időjárási megfigyelések és előrejelzések megtekintéséhez.

A térkép megváltoztatása: kattintson a fekete keresztel jelölt zöld gombra ráközelítéshez, a vonallal jelölt zöld gombra távolításhoz, vagy a zöld nyilakra a szomszédos térképek eléréséhez.


METAR-TAF: